Regional Weather Roundup
Issued by NWS

Home | Current Version | Previous Version | Text Only | Print | Product List | Glossary Off
Versions: 1 2 3 4 5 6 7 8 9 10 11 12 13 14 15 16 17 18 19 20 21 22 23 24 25 26 27 28 29 30 31 32 33 34 35 36 37 38 39 40 41 42 43 44 45 46 47 48 49 50

000
ASUS43 KIND 041459
RWRIN

WEATHER ROUNDUP FOR INDIANA
NATIONAL WEATHER SERVICE INDIANAPOLIS IN
1000 AM EST SUN DEC 04 2016

NOTE: "FAIR" INDICATES FEW OR NO CLOUDS BELOW 12,000 FEET WITH NO
SIGNIFICANT WEATHER AND/OR OBSTRUCTIONS TO VISIBILITY.

* - STATION DOES NOT REPORT WEATHER SUCH AS PRECIPITATION OR FOG.

+ - STATION NOT QUALITY CONTROLLED BY THE NATIONAL WEATHER SERVICE.
    USE DATA WITH CAUTION...ESPECIALLY DEWPOINT AND RELATIVE
    HUMIDITY OBSERVATIONS.

INZ001>003-010>013-019-020-041600-
NORTHWEST INDIANA

CITY           SKY/WX    TMP DP  RH WIND       PRES   REMARKS
GARY /AIRPORT/ CLOUDY    34  28  80 SE6       30.15F WCI  29
LA PORTE +     MOSUNNY   34  34 100 E6        30.16F WCI  29

$$

LMZ046-743>745-041600-
SOUTHERN LAKE MICHIGAN

STATION/POSITION TIME  TEMP    WIND        PRES    WAVE
                       AIR SEA DIR/SP/G            HT
                 (UTC) (F)     (DEG/KT/KT) (MB)    (FT)
BURNS HARBOR     1440   34     100/  7/  8 1021.3F

$$

INZ004-005-014>016-021>024-041600-
NORTH CENTRAL INDIANA

CITY           SKY/WX    TMP DP  RH WIND       PRES   REMARKS
ELKHART        CLOUDY    34  27  75 E8        30.16F WCI  27
GOSHEN         CLOUDY    35  26  69 SE9       30.16F WCI  28
SOUTH BEND     CLOUDY    33  27  78 E7        30.16F WCI  27
WARSAW +       CLOUDY    34  27  75 SE6       30.16F WCI  29

$$

INZ006>009-017-018-025>027-041600-
NORTHEAST INDIANA

CITY           SKY/WX    TMP DP  RH WIND       PRES   REMARKS
ANGOLA *+      PTSUNNY   34  27  75 SE6       30.17F WCI  29
FORT WAYNE     CLOUDY    34  29  82 SE7       30.17F WCI  28
KENDALLVILLE + CLOUDY    34  28  77 SE7       30.18R WCI  28

$$

INZ028-029-035-036-043>045-051>053-041600-
WEST CENTRAL INDIANA

CITY           SKY/WX    TMP DP  RH WIND       PRES   REMARKS
CRAWFORDSVL +  CLOUDY    34  32  92 E9        30.08F WCI  26
GREENCASTLE +  CLOUDY    36  32  87 E8        30.08F
LAFAYETTE      CLOUDY    35  30  82 E9        30.11F WCI  28
TERRE HAUTE    CLOUDY    37  31  78 E8        30.07F

$$

INZ030>032-037>040-046>048-054>057-064-065-041600-
CENTRAL INDIANA

CITY           SKY/WX    TMP DP  RH WIND       PRES   REMARKS
COLUMBUS       CLOUDY    37  34  87 E7        30.12F
FRANKFORT +    CLOUDY    37  33  85 SE8       30.13F
GREENWOOD *+   PTSUNNY   38  32  79 E8        30.11F
INDIANAPOLIS   PTSUNNY   37  30  75 E8        30.10F
-EAGLE CREEK   PTSUNNY   38  30  73 SE9       30.10F
KOKOMO +       CLOUDY    34  31  88 E9        30.14F WCI  27
SHELBYVILLE    CLOUDY    38  31  76 E10       30.10F

$$

INZ033-034-041-042-049-050-058-059-041600-
EAST CENTRAL INDIANA

CITY           SKY/WX    TMP DP  RH WIND       PRES   REMARKS
MUNCIE         PTSUNNY   38  30  73 SE10      30.14F

$$

INZ060-061-067>069-081>083-085>088-041600-
SOUTHWEST INDIANA

CITY           SKY/WX    TMP DP  RH WIND       PRES   REMARKS
EVANSVILLE     CLOUDY    41  36  82 E6        30.06S
HUNTINGBURG *+ CLOUDY    41  35  79 SE9       30.05F

$$

INZ062-063-066-070>080-084-089>092-041600-
SOUTH CENTRAL AND SOUTHEAST INDIANA

CITY           SKY/WX    TMP DP  RH WIND       PRES   REMARKS
BLOOMINGTON    CLOUDY    38  30  73 E10       30.06F
MADISON *+     CLOUDY    39  32  75 E9        30.13F
SEYMOUR +      CLOUDY    41  32  70 E8        30.10F

$$





USA.gov is the U.S. government's official web portal to all federal, state and local government web resources and services.